Weather Roundup
Issued by NWS Corpus Christi, TX

Home | Current Version | Previous Version | Text Only | Print | Product List | Glossary On
Versions: 1 2 3 4 5 6 7 8 9 10 11 12 13 14 15 16 17 18 19 20 21 22 23 24 25 26 27 28 29 30 31 32 33 34 35 36 37 38 39 40 41 42 43 44 45 46 47 48 49 50
000
ASUS44 KCRP 260210
HRRCRP

SOUTH TEXAS REGIONAL WEATHER ROUNDUP
NATIONAL WEATHER SERVICE CORPUS CHRISTI TX
900 PM CDT FRI MAY 25 2018


TXZ229>244-260300-
...CORPUS CHRISTI AREA OBSERVATIONS...

CITY           SKY/WX    TMP DP  RH WIND       PRES   REMARKS
CORPUS CHRISTI PTCLDY    81  76  84 SE9       29.86R
NAS CORPUS CHR CLEAR     82  76  81 SE14      29.86R
ROCKPORT       CLEAR     81  73  76 S8        29.85R
KINGSVILLE ARP FAIR      83  76  78 SE7       29.87R HX  91
KINGSVILLE NAS CLEAR     82  74  76 SE9       29.86R
ALICE          CLEAR     82  69  64 SE10      29.86R
$$

...VICTORIA AREA OBSERVATIONS...

CITY           SKY/WX    TMP DP  RH WIND       PRES   REMARKS
PORT LAVACA    CLEAR     79  72  78 S6        29.87R
VICTORIA       PTCLDY    81  71  71 S7        29.87R
BEEVILLE       FAIR      82  69  65 SE8       29.87R
PLEASANTON     CLEAR     89  61  40 SE3       29.85R
SAN ANTONIO    PTCLDY    85  64  49 E6        29.87R
$$

...LAREDO AREA OBSERVATIONS...

CITY           SKY/WX    TMP DP  RH WIND       PRES   REMARKS
LAREDO         PTCLDY    93  62  35 E13       29.82S HX  93
COTULLA        PTCLDY    90  63  40 E8        29.83R HX  91
DEL RIO        CLEAR     93  62  35 E6        29.80S HX  93
MCALLEN        CLEAR     88  71  57 SE16      29.86R HX  94
HEBBRONVILLE   CLEAR     85  67  54 SE13      29.87S
$$

...OTHER TEXAS OBSERVATIONS...

CITY           SKY/WX    TMP DP  RH WIND       PRES   REMARKS
BROWNSVILLE    FAIR      82  75  79 SE8       29.88R
HOUSTON        FAIR      82  74  76 S8        29.86R
COL. STATION   CLEAR     84  70  62 E6        29.87R
AUSTIN         PTCLDY    84  70  62 SE5       29.86S
WACO           CLOUDY    80  64  58 E12G20    29.84F
FORT WORTH     PTCLDY    79  58  48 SE6       29.82F
WICHITA FALLS  MOCLDY    79  64  60 S12       29.83R
LUBBOCK        PTCLDY    89  38  16 VRB3      29.86S
EL PASO        PTCLDY    91   2   3 W7        29.95S
$$

...MARINE OBSERVATIONS...

STATION/POSITION TIME  SKY/WX   TEMP    WIND        PRES    VSBY  WAVE   SWELL
                                AIR SEA DIR/SP/G                  HT/PER HT/PER
                 (UTC)          (F)     (DEG/KT/KT) (MB)    (MI)  (FT/S) (FT/S)
PORT ARANSAS     0200            81 86  130/ 13/ 15 1011.2R
BUOY 90 E PORT A 0150            82 83  130/ 10/ 12 1011.6F         2/ 8   2/ 8
BUOY 200 E PT IS 0150            81 82   90/  8/ 10 1012.3R         3/ 7   2/ 7
BUOY 15 E GALVES NOT AVBL
$$



USA.gov is the U.S. government's official web portal to all federal, state and local government web resources and services.